Погода в Мужи

Погода в Мужи : погода сейчас, прогноз погоды и архив. Всё, что Вы хотите узнать о погоде в Мужи!

Хотите узнать прогноз погоды в Мужи? Тогда Вам сюда: Погода в Мужи

Поиск расширенной информации на нашем сайте:

Другие новости

Новости СМИ2

Главная страница сайта

Новости сайта

03.07.2017

Напоминаем, что на нашем специализированном сайте Метеоцентр.Азия вы можете получить высокодетализированные автоматические прогнозы погоды по пунктам России, СНГ и мира в авиационном формате (включающие направление и скорость ветра, видимость, явления погоды, количество и форму облачности, нижнюю и верхнюю границу облачности).


Погода в Мужи - сегодня

Время (UTC), дата Ветер
(°,м/с) 
Видим.   Явления Облачность Т
(°С)
Тd
(°С)
f(%) Тe
(°С)
Pmin
(гПа)
dP
(гПа)
Po
(мм)
O2
(г/м3)
Тmin Tmax R s Состояние
почвы
00 16.09.17 180 (Ю) 50000 м    10/0 средняя 
[As op]
+2.1 -0.5 83 +3  1010.5  1.1  756  302           
03 16.09.17 020 (С) 60000 м    10/0 средняя 
[As op]
+3.2 +0.1 80 +4    0.2  756  301  +2.1        влажная 
06 16.09.17 310 (СЗ) н/о    9/4 1000 м средняя 
[Sc|As op]
+4.6 -0.2 71 +4  1009.8  -1  756  299           
09 16.09.17 060 (СВ) 19000 м    10/3 300 м средняя 
[Frnb|Ac As]
+5.2 +1.8 79 +5    -1.5  754  298           
12 16.09.17 110 (В) 12000 м  слаб. дождь  10/3 300 м средняя 
[Frnb|As op]
+4.6 +3.2 91 +4  1006  -2.1  753  298           
15 16.09.17 100 (В) 5000 м  слаб. дождь  10/3 300 м средняя 
[Frnb|As op]
+4.2 +3.7 97 +5  1004.7  -1.3  752  298    +5.7     
18 16.09.17 100 (В) 4100 м    10/3 300 м средняя 
[Frnb|As op]
+4.5 +4.1 97 +5  1002.6  -2.1  750  297           
21 16.09.17 110 (В) 4000 м  слаб. дождь  10/0 средняя 
[As op]
+4.6 +4.3 98 +5  1000.6  -2  749  296           
00 17.09.17 070 (В) 5000 м  слаб. дождь  10/0 средняя 
[As op]
+4.6 +4.3 98 +5  999.2  -1.4  748  296           
03 17.09.17 070 (В) 6000 м  слаб. морось{дождь}  10/10 300 м 
[St]
+4.8 +4.6 99 +6  998.1  -1.1  747  295  +4.2      мокрая 
06 17.09.17 070 (В) 6000 м  дымка{дождь, морось}  10/10 300 м 
[St]
+5.6 +5.3 98 +5  997.5  -0.6  746  294           
09 17.09.17 030 (СВ) 7000 м  слаб. дождь  10/10 300 м 
[Ns]
+6.2 +6 99 +6  997.6  0.1  746  293           
12 17.09.17 030 (СВ) 10 км  слаб. дождь  10/6 300 м средняя 
[Frnb|As op]
+6.7 +6.4 98 +6  997.6  746  293           
15 17.09.17 020 (С) 8000 м  слаб. дождь  10/6 300 м средняя 
[Frnb|As op]
+5.6 +5.3 98 +4  998  0.4  747  294    +6.7     
18 17.09.17 020 (С) 9000 м  слаб. дождь  10/5 300 м средняя 
[Frnb|As op]
+4.5 +4.1 97 +2  998.7  0.7  747  296           
03 18.09.17 300 (СЗ) 4{10}  55000 м    10/10 600 м кучево-дожд. 
[Cb cap]
+3.3 +2.5 94 +1    2.1  751  299  +3.1      мокрая 
09 18.09.17 010 (С) 45000 м  в посл. час ливневой дождь  9/9 600 м кучево-дожд. 
[Cb cap]
+5.1 +2.5 83 +4  1008.5  2.2  755  298           
12 18.09.17 360 (С) 55000 м  {ливн. осадки}  10/10 1000 м 
[Sc]
+5.1 +1.6 78 +5  1010.5  756  299           
15 18.09.17 280 (З) 50000 м    10/5 1000 м средняя 
[Sc|Ac und]
+4.3 +1.9 84 +4  1012.1  1.7  757  300    +5.5  0.6     
18 18.09.17 340 (С) 50000 м    10/0 средняя 
[Ac As]
+4.1 +2.1 87 +4  1013.3  1.1  758  301           
21 18.09.17 320 (СЗ) 50000 м    10/0 средняя 
[Ac As]
+3.9 +2 87 +3  1014.1  0.8  759  301           
00 19.09.17 260 (З) 50000 м    6/0 средняя 
[Ac trans]
+1.8 +0.3 90 +1  1015.4  1.3  760  304           
03 19.09.17 330 (СЗ) н/о    8/0 средняя 
[As trans]
+3 +1.5 90 +2  1016.6  1.2  761  303  +1.5        влажная 
06 19.09.17 340 (С) 19000 м  слаб. дождь  10/3 300 м средняя 
[Frnb|As op]
+4.7 +3.1 89 +3  1017.7  1.1  761  301           
09 19.09.17 010 (С) 15000 м  слаб. дождь  10/3 300 м средняя 
[Frnb|As op]
+5.7 +5 95 +5  1018.7  762  300           
Время (UTC), дата Ветер
(°,м/с) 
Видим.   Явления Облачность Т
(°С)
Тd
(°С)
f(%) Тe
(°С)
Pmin
(гПа)
dP
(гПа)
Po
(мм)
O2
(г/м3)
Тmin Tmax R s Состояние
почвы

Для получения пояснительной информации подведите курсор к названию столбца.

ПОГОДА в Мужи - архив

Всё, что Вы хотите узнать о погоде в Мужи - удобно и подробно!

Выберите нужную дату (начиная с 1 января 2015* года) и нажмите кнопку "Найти".
Будут отображены архивные сводки погоды по пункту Мужи, начиная с указанной даты.


Отображать данные в формате CSV (для использования в таблицах Excel)


Внимание! Наш архив погоды предназначен исключительно для личного некоммерческого использования в познавательных целях. Если Вам необходимы официальные справки о состоянии погоды (для производственных, юридических, коммерческих и т.п. целей), обращайтесь в органы Росгидромета.

*Примечание: данная дата относится к архиву по метеостанциям СССР (Россия, СНГ, Балтия).
Архив по метеостанциям Зарубежной Европы и Азии (кроме Китая) хранится 10 дней, по другим регионам земного шара (Китай, Африка, Америка, Австралия, Океания) - 1 день.

Мужи - район местоположения метеостанции


Название, широта, долгота, высота метеостанции:
Мужи 65.4°ш. 64.7°д. 19 м над ур. моря [Российская Федерация]

Дополнительная информация

В oтличие oт бoльшинства пoгoдных сайтoв мы публикуем пoдрoбную метеoинфoрмацию в детальнoм прoфессиoнальнoм фoрмате.

Характеристики температуры и влажнoсти вoздуха измеряются на высoте 2 м в тени вдали oт зданий и деревьев.
Скoрoсть ветра измеряется на высoте 10 м (на урoвне рoста челoвека скoрoсть ветра ниже в 1.5-2 раза). Если метеoстанция нахoдится в гoрoде или в лесу, тo скoрoсть ветра занижена на 2-4 м/с пo сравнению с oткрытым местoм. Скoрoсть ветра над акватoриями крупных рек и oзёр, а также на вершинах хoлмoв на 2-5 м/с выше, чем в oбычных услoвиях.
Атмoсфернoе давление в разных тoчках местнoсти мoжет значительнo oтличаться oт давления на метеoстанции, в зависимoсти oт услoвий рельефа (при пoдъёме на 10 м давление пoнижается примернo на 1 мм рт.ст.).